Date String (YYYY-MM-DD hh:mm:ss) UTC,Instrument flags,absolute air pressure of the measurement (hPa),sample flow rate (lpm),inlet stack bypass flow (lpm),air temperature of the measurement (°C),ambient temperature measured by the external sensor (°C),aerosol sample conditioner tube jacket temperature (°C),OPC LED temperature (°C),internal box temperature (°C),relative humidity of the measurement (%),span deviation,mass concentration of particles derived from Lorenz-Mie calculation of OPC scattering (μg/m³),mass concentration of particles derived from Lorenz-Mie calculation of OPC scattering (μg/m³),mass concentration of particles derived from Lorenz-Mie calculation of OPC scattering (μg/m³)
DateTimeUTC,F1_M11,P_M11,Q1_M11,Q2_M11,T1_M11,T2_M11,T3_M11,T4_M11,T5_M11,U1_M11,ZSPAN_M11,X0_M11,X2_M11,X1_M11
2023-08-14 07:00:00,SystemResetWarning,0840.5,5.00,000.00,029.5,028.1,000.0,038.0,031.1,21.4,0001.9,0009.81,0003.91,0003.55
2023-08-14 07:01:00,SystemResetWarning,0840.5,5.00,000.00,029.5,028.1,000.0,038.0,031.1,21.4,0001.6,0010.08,0003.91,0003.56
2023-08-14 07:02:00,SystemResetWarning,0840.4,5.00,000.00,029.5,028.1,000.0,038.1,031.1,21.3,0001.7,0010.25,0003.91,0003.57
2023-08-14 07:03:00,SystemResetWarning,0840.5,5.00,000.00,029.5,028.1,000.0,038.1,031.1,21.3,0001.7,0010.50,0003.91,0003.57
2023-08-14 07:04:00,SystemResetWarning,0840.4,4.99,000.00,029.5,028.2,000.0,038.1,031.1,21.2,0001.8,0010.49,0003.91,0003.57
2023-08-14 07:05:00,SystemResetWarning,0840.4,4.98,000.00,029.5,028.2,000.0,038.1,031.1,21.2,0001.8,0010.06,0003.96,0003.57
2023-08-14 07:06:00,SystemResetWarning,0840.5,5.00,000.00,029.6,028.2,000.0,038.1,031.2,21.2,0002.3,0009.68,0003.96,0003.58
2023-08-14 07:07:00,SystemResetWarning,0840.5,5.00,000.00,029.6,028.2,000.0,038.1,031.2,21.0,0002.8,0010.01,0003.99,0003.57
2023-08-14 07:08:00,SystemResetWarning,0840.5,5.00,000.00,029.6,028.2,000.0,038.1,031.2,21.1,0003.0,0010.03,0004.03,0003.57
2023-08-14 07:09:00,SystemResetWarning,0840.5,5.00,000.00,029.6,028.3,000.0,038.2,031.2,21.1,0002.9,0009.97,0004.05,0003.57
2023-08-14 07:10:00,SystemResetWarning,0840.5,5.00,000.00,029.6,028.3,000.0,038.2,031.2,21.1,0002.9,0009.92,0004.08,0003.58
2023-08-14 07:11:00,SystemResetWarning,0840.5,5.01,000.00,029.6,028.3,000.0,038.2,031.2,21.1,0002.9,0009.72,0004.08,0003.58
2023-08-14 07:12:00,SystemResetWarning,0840.5,5.00,000.00,029.6,028.3,000.0,038.2,031.2,21.1,0002.9,0009.42,0004.07,0003.57
2023-08-14 07:13:00,SystemResetWarning,0840.5,5.00,000.00,029.7,028.3,000.0,038.2,031.3,21.0,0003.0,0008.83,0004.08,0003.57
2023-08-14 07:14:00,SystemResetWarning,0840.5,5.00,000.00,029.7,028.3,000.0,038.2,031.3,21.0,0003.1,0008.24,0004.07,0003.57
2023-08-14 07:15:00,SystemResetWarning,0840.4,4.99,000.00,029.7,028.3,000.0,038.2,031.3,20.9,0003.0,0008.25,0004.08,0003.57
2023-08-14 07:16:00,SystemResetWarning,0840.5,5.00,000.00,029.7,028.3,000.0,038.3,031.3,20.9,0002.9,0008.27,0004.08,0003.55
2023-08-14 07:17:00,SystemResetWarning,0840.5,5.00,000.00,029.7,028.4,000.0,038.3,031.3,20.9,0002.9,0008.07,0004.08,0003.56
2023-08-14 07:18:00,SystemResetWarning,0840.5,5.00,000.00,029.7,028.4,000.0,038.3,031.3,21.0,0002.8,0007.77,0004.10,0003.57
2023-08-14 07:19:00,SystemResetWarning,0840.5,5.00,000.00,029.7,028.4,000.0,038.3,031.3,20.9,0002.7,0007.81,0004.08,0003.56
2023-08-14 07:20:00,SystemResetWarning,0840.5,5.01,000.00,029.7,028.4,000.0,038.3,031.3,20.9,0002.9,0007.82,0004.06,0003.56
2023-08-14 07:21:00,SystemResetWarning,0840.6,5.01,000.00,029.7,028.4,000.0,038.3,031.3,20.9,0002.8,0008.35,0004.04,0003.55
2023-08-14 07:22:00,SystemResetWarning,0840.5,5.00,000.00,029.8,028.4,000.0,038.3,031.3,20.9,0002.8,0008.52,0004.09,0003.55
2023-08-14 07:23:00,SystemResetWarning,0840.5,5.00,000.00,029.8,028.4,000.0,038.3,031.3,20.9,0002.9,0008.52,0004.11,0003.56
2023-08-14 07:24:00,SystemResetWarning,0840.6,4.99,000.00,029.8,028.4,000.0,038.4,031.3,20.9,0002.9,0008.46,0004.07,0003.55
2023-08-14 07:25:00,SystemResetWarning,0840.5,5.00,000.00,029.8,028.4,000.0,038.4,031.3,20.9,0002.5,0008.62,0004.10,0003.56
2023-08-14 07:26:00,SystemResetWarning,0840.5,5.00,000.00,029.8,028.4,000.0,038.4,031.3,20.7,0002.6,0008.62,0004.10,0003.57
2023-08-14 07:27:00,SystemResetWarning,0840.6,5.00,000.00,029.8,028.4,000.0,038.4,031.4,20.5,0002.6,0008.57,0004.05,0003.56
2023-08-14 07:28:00,SystemResetWarning,0840.5,5.00,000.00,029.8,028.4,000.0,038.4,031.4,20.5,0002.4,0008.45,0004.04,0003.54
2023-08-14 07:29:00,SystemResetWarning,0840.5,5.00,000.00,029.8,028.4,000.0,038.4,031.4,20.4,0002.3,0008.56,0004.02,0003.54
2023-08-14 07:30:00,SystemResetWarning,0840.5,5.00,000.00,029.8,028.4,000.0,038.4,031.4,20.4,0002.2,0008.63,0004.00,0003.53
2023-08-14 07:31:00,SystemResetWarning,0840.5,5.01,000.00,029.8,028.5,000.0,038.4,031.4,20.3,0002.1,0008.63,0004.02,0003.54
2023-08-14 07:32:00,SystemResetWarning,0840.5,5.00,000.00,029.8,028.5,000.0,038.4,031.4,20.3,0001.7,0008.12,0004.03,0003.53
2023-08-14 07:33:00,SystemResetWarning,0840.5,5.00,000.00,029.9,028.5,000.0,038.5,031.4,20.3,0001.7,0008.34,0003.98,0003.53
2023-08-14 07:34:00,SystemResetWarning,0840.5,5.00,000.00,029.9,028.5,000.0,038.5,031.4,20.3,0001.7,0009.48,0004.01,0003.53
2023-08-14 07:35:00,SystemResetWarning,0840.5,5.00,000.00,029.9,028.5,000.0,038.5,031.4,20.3,0001.9,0009.89,0004.04,0003.54
2023-08-14 07:36:00,SystemResetWarning,0840.5,5.00,000.00,029.9,028.5,000.0,038.5,031.4,20.2,0002.3,0010.14,0004.04,0003.53
2023-08-14 07:37:00,SystemResetWarning,0840.5,5.01,000.00,029.9,028.5,000.0,038.5,031.4,20.3,0002.1,0010.10,0004.03,0003.53
2023-08-14 07:38:00,SystemResetWarning,0840.5,5.00,000.00,029.9,028.5,000.0,038.5,031.5,20.3,0001.6,0010.06,0004.05,0003.54
2023-08-14 07:39:00,SystemResetWarning,0840.5,5.00,000.00,029.9,028.5,000.0,038.5,031.4,20.3,0001.7,0010.07,0004.09,0003.56
2023-08-14 07:40:00,SystemResetWarning,0840.5,5.00,000.00,029.9,028.5,000.0,038.5,031.4,20.4,0001.7,0009.82,0004.09,0003.56
2023-08-14 07:41:00,SystemResetWarning,0840.4,5.00,000.00,029.9,028.5,000.0,038.5,031.4,20.4,0002.1,0010.41,0004.11,0003.56
2023-08-14 07:42:00,SystemResetWarning,0840.5,5.00,000.00,029.9,028.5,000.0,038.5,031.4,20.4,0002.2,0010.68,0004.10,0003.56
2023-08-14 07:43:00,SystemResetWarning,0840.5,4.99,000.00,029.9,028.5,000.0,038.6,031.5,20.4,0002.5,0010.70,0004.10,0003.57
2023-08-14 07:44:00,SystemResetWarning,0840.5,5.00,000.00,029.9,028.4,000.0,038.5,031.5,20.4,0002.6,0011.00,0004.14,0003.59
2023-08-14 07:45:00,SystemResetWarning,0840.5,4.99,000.00,029.9,026.5,000.0,038.4,031.2,20.5,0002.6,0009.86,0004.12,0003.59
2023-08-14 07:46:00,SystemResetWarning,0840.5,5.02,000.00,029.8,025.1,000.0,038.2,030.9,20.5,0002.3,0009.52,0004.15,0003.60
2023-08-14 07:47:00,SystemResetWarning,0840.5,5.00,000.00,029.7,025.1,000.0,038.2,030.6,20.7,0002.1,0009.28,0004.17,0003.62
2023-08-14 07:48:00,SystemResetWarning,0840.4,4.99,000.00,029.5,025.4,000.0,038.2,030.6,20.9,0002.2,0009.60,0004.16,0003.63
2023-08-14 07:49:00,SystemResetWarning,0840.5,5.01,000.00,029.5,025.8,000.0,038.2,030.7,21.1,0002.5,0010.50,0004.15,0003.63
2023-08-14 07:50:00,SystemResetWarning,0840.4,5.00,000.00,029.4,026.2,000.0,038.2,030.7,21.1,0002.4,0010.52,0004.12,0003.63
2023-08-14 07:51:00,SystemResetWarning,0840.5,4.99,000.00,029.4,026.6,000.0,038.2,030.8,21.0,0002.3,0010.52,0004.12,0003.63
2023-08-14 07:52:00,SystemResetWarning,0840.5,5.00,000.00,029.4,026.8,000.0,038.2,030.8,21.0,0002.3,0009.93,0004.15,0003.63
2023-08-14 07:53:00,SystemResetWarning,0840.5,5.00,000.00,029.4,027.1,000.0,038.1,030.8,21.2,0002.5,0009.43,0004.15,0003.63
2023-08-14 07:54:00,SystemResetWarning,0840.5,5.00,000.00,029.4,027.3,000.0,038.1,030.8,21.2,0002.5,0009.56,0004.14,0003.62
2023-08-14 07:55:00,SystemResetWarning,0840.4,5.00,000.00,029.4,027.4,000.0,038.1,030.9,21.3,0002.6,0009.18,0004.12,0003.61
2023-08-14 07:56:00,SystemResetWarning,0840.4,5.00,000.00,029.4,027.5,000.0,038.1,030.9,21.2,0002.8,0009.32,0004.09,0003.60
2023-08-14 07:57:00,SystemResetWarning,0840.5,5.00,000.00,029.4,027.6,000.0,038.1,030.9,21.2,0003.2,0009.31,0004.07,0003.59
2023-08-14 07:58:00,SystemResetWarning,0840.5,5.00,000.00,029.4,027.7,000.0,038.1,030.9,21.2,0003.2,0009.21,0004.00,0003.56
2023-08-14 07:59:00,SystemResetWarning,0840.5,5.00,000.00,029.4,027.8,000.0,038.1,031.0,21.2,0003.1,0009.51,0004.00,0003.55
